DC4AT Weather Reports


Display with metric or nautical units.
time (UTC)temp
F
wind
direction
speed
MPH
gust
MPH
rain 1hr
in
rain 24hr
in
rain mn
in
humidity
%
barometer
mb
20260901112722 69 222 8.0 13.0 0.00 0.25 0.00 67 1019.5
20260901111722 68 289 7.0 15.0 0.00 0.25 0.00 69 1019.4
20260901110722 68 236 8.0 11.0 0.00 0.25 0.00 72 1019.4
20260901105722 67 240 8.0 14.0 0.00 0.25 0.00 71 1019.4
20260901104722 67 258 7.0 11.0 0.00 0.25 0.00 74 1019.5
20260901103722 66 225 5.0 12.0 0.00 0.25 0.00 75 1019.4
20260901102722 65 224 6.0 11.0 0.00 0.30 0.00 77 1019.5
20260901101722 65 200 7.0 13.0 0.00 0.30 0.00 77 1019.5
20260901100722 65 242 5.0 10.0 0.00 0.30 0.00 78 1019.5
20260901095722 64 268 5.0 11.0 0.00 0.30 0.00 78 1019.5
20260901094722 64 236 5.0 8.0 0.00 0.30 0.00 81 1019.6
20260901093722 64 265 6.0 11.0 0.00 0.30 0.00 81 1019.6
20260901092722 64 234 7.0 13.0 0.00 0.30 0.00 81 1019.6
20260901091722 63 248 5.0 9.0 0.00 0.30 0.00 83 1019.6
20260901090722 63 240 5.0 8.0 0.00 0.30 0.00 83 1019.6
20260901085722 62 244 5.0 10.0 0.00 0.30 0.00 84 1019.5
20260901084722 62 248 7.0 10.0 0.00 0.30 0.00 83 1019.6
20260901083722 62 229 6.0 11.0 0.00 0.30 0.00 83 1019.6
20260901082722 62 270 6.0 12.0 0.00 0.30 0.00 83 1019.4
20260901081722 62 213 7.0 11.0 0.00 0.30 0.00 84 1019.4
20260901080722 62 249 5.0 12.0 0.00 0.30 0.00 85 1019.1
20260901075722 61 250 5.0 10.0 0.00 0.30 0.00 85 1019.1
20260901074722 61 205 6.0 8.0 0.00 0.30 0.00 85 1019.0
20260901073722 61 277 4.0 7.0 0.00 0.30 0.00 86 1018.9
20260901072722 60 263 2.0 7.0 0.00 0.30 0.00 86 1018.9
20260901071722 60 259 3.0 7.0 0.00 0.30 0.00 86 1018.9
20260901070722 60 292 4.0 7.0 0.00 0.30 0.00 86 1018.8
20260901065722 59 248 5.0 7.0 0.00 0.30 0.00 86 1018.8
20260901064722 59 284 6.0 10.0 0.00 0.30 0.00 86 1018.6
20260901063722 59 274 6.0 10.0 0.00 0.30 0.00 86 1018.6
20260901062722 59 281 6.0 11.0 0.00 0.30 0.00 86 1018.5
20260901061722 59 274 6.0 11.0 0.00 0.30 0.00 86 1018.4
20260901060722 59 284 4.0 7.0 0.00 0.30 0.00 86 1018.4
20260901055723 59 260 5.0 8.0 0.00 0.30 0.00 86 1018.4
20260901054722 59 257 6.0 9.0 0.00 0.30 0.00 86 1018.3
20260901053722 59 220 4.0 8.0 0.00 0.30 0.00 86 1018.3
20260901052722 58 296 2.0 4.0 0.00 0.30 0.00 86 1018.3
20260901051722 58 281 3.0 7.0 0.00 0.30 0.00 86 1018.2
20260901050722 58 274 3.0 6.0 0.00 0.30 0.00 85 1018.2
20260901045722 57 265 3.0 7.0 0.00 0.30 0.00 85 1018.1
20260901044722 57 290 1.0 4.0 0.00 0.30 0.00 84 1018.0
20260901043722 57 272 1.0 3.0 0.00 0.30 0.00 84 1017.8
20260901042722 56 119 0.0 1.0 0.00 0.30 0.00 84 1017.8
20260901041723 56 119 1.0 1.0 0.00 0.30 0.00 85 1017.5
20260901040723 56 119 1.0 3.0 0.00 0.30 0.00 85 1017.5
20260901035723 57 163 0.0 1.0 0.00 0.30 0.00 86 1017.5
20260901034723 57 163 0.0 2.0 0.00 0.30 0.00 86 1017.3
20260901033723 57 181 1.0 1.0 0.00 0.30 0.00 86 1017.1
20260901032723 58 261 2.0 5.0 0.00 0.30 0.00 86 1016.9
20260901031723 58 239 2.0 4.0 0.00 0.30 0.00 86 1016.9
20260901030723 58 241 5.0 8.0 0.00 0.30 0.00 86 1016.8
20260901025723 58 248 4.0 8.0 0.00 0.30 0.00 86 1016.8
20260901024723 58 248 6.0 9.0 0.00 0.30 0.00 86 1016.7
20260901023723 58 233 5.0 9.0 0.00 0.30 0.00 86 1016.6
20260901022723 58 234 4.0 9.0 0.00 0.30 0.00 86 1016.7
20260901021723 58 260 3.0 7.0 0.00 0.30 0.00 86 1016.7
20260901020723 58 279 3.0 10.0 0.00 0.30 0.00 86 1016.6
20260901015723 59 254 5.0 8.0 0.00 0.30 0.00 86 1016.6
20260901014723 59 240 4.0 10.0 0.00 0.30 0.00 86 1016.5
20260901013723 59 248 4.0 8.0 0.00 0.30 0.00 86 1016.5
20260901012723 59 257 3.0 6.0 0.00 0.30 0.00 86 1016.5
20260901011723 59 240 3.0 8.0 0.00 0.30 0.00 86 1016.3
20260901010723 59 238 2.0 7.0 0.00 0.30 0.00 86 1016.5
20260901005723 59 271 1.0 5.0 0.00 0.30 0.00 86 1016.5
20260901004723 59 269 4.0 10.0 0.00 0.30 0.00 86 1016.5
20260901003723 59 238 2.0 7.0 0.00 0.30 0.00 86 1016.5
20260901002723 59 275 2.0 6.0 0.00 0.30 0.00 86 1016.3
20260901001723 59 254 3.0 7.0 0.00 0.30 0.00 86 1016.3
20260901000723 59 242 4.0 8.0 0.00 0.30 0.00 86 1016.3
20260831235723 59 238 3.0 7.0 0.00 0.30 0.00 86 1016.3
20260831234723 59 242 4.0 7.0 0.00 0.30 0.00 86 1016.3
20260831233723 59 253 6.0 10.0 0.00 0.30 0.00 86 1016.1
20260831232723 59 257 7.0 12.0 0.00 0.30 0.00 86 1016.0
20260831231723 59 243 6.0 11.0 0.00 0.30 0.00 86 1016.0
20260831230723 59 247 7.0 11.0 0.00 0.30 0.00 86 1015.8
20260831225723 59 209 6.0 11.0 0.00 0.30 0.00 86 1015.8
20260831224723 59 229 7.0 13.0 0.00 0.30 0.00 86 1015.9
20260831223723 59 262 8.0 12.0 0.00 0.30 0.00 86 1015.8
20260831222723 59 261 6.0 13.0 0.00 0.30 0.00 85 1015.8
20260831221723 59 261 7.0 13.0 0.00 0.30 0.00 86 1015.6
20260831220723 59 244 6.0 13.0 0.00 0.30 0.30 85 1015.6
20260831215723 59 249 5.0 11.0 0.00 0.30 0.30 85 1015.5
20260831214723 59 268 3.0 7.0 0.00 0.30 0.30 85 1015.5
20260831213723 59 234 5.0 10.0 0.00 0.30 0.30 85 1015.4
20260831212723 59 235 5.0 9.0 0.00 0.30 0.30 85 1015.4
20260831211723 59 250 4.0 11.0 0.00 0.30 0.30 85 1015.3
20260831210723 59 275 5.0 10.0 0.00 0.30 0.30 85 1015.1
20260831205723 59 247 5.0 12.0 0.00 0.30 0.30 86 1015.1
20260831204724 59 242 5.0 9.0 0.00 0.30 0.30 86 1014.9
20260831203724 59 240 5.0 11.0 0.00 0.30 0.30 86 1014.8
20260831202724 59 231 6.0 9.0 0.00 0.30 0.30 86 1014.7
20260831201724 59 238 5.0 12.0 0.00 0.30 0.30 86 1014.5
20260831200724 59 260 4.0 8.0 0.00 0.30 0.30 86 1014.4
20260831195724 59 261 2.0 6.0 0.00 0.30 0.30 86 1014.5
20260831194724 60 274 5.0 10.0 0.00 0.30 0.30 86 1014.4
20260831193724 60 238 5.0 13.0 0.00 0.30 0.30 86 1014.3
20260831192724 60 240 7.0 10.0 0.00 0.30 0.30 85 1014.2
20260831191724 60 236 5.0 13.0 0.00 0.30 0.30 86 1014.2
20260831190724 59 231 3.0 9.0 0.00 0.30 0.30 85 1014.1
20260831185724 59 219 4.0 8.0 0.00 0.30 0.30 86 1014.0
20260831184724 59 225 2.0 9.0 0.00 0.30 0.30 86 1014.0
20260831183724 59 275 1.0 3.0 0.00 0.30 0.30 86 1013.7
20260831182724 60 247 3.0 6.0 0.00 0.30 0.30 85 1013.5
20260831181724 60 223 3.0 7.0 0.00 0.30 0.30 85 1013.5
20260831180724 60 225 2.0 6.0 0.00 0.30 0.30 86 1013.4
20260831175724 60 263 1.0 6.0 0.00 0.30 0.30 86 1013.4
20260831174724 60 266 0.0 0.0 0.00 0.30 0.30 86 1013.1
20260831173724 60 265 2.0 7.0 0.00 0.30 0.30 86 1012.9
20260831172724 61 263 2.0 7.0 0.00 0.30 0.30 86 1013.0
20260831171724 61 236 1.0 6.0 0.00 0.30 0.30 86 1012.8
20260831170724 61 263 0.0 3.0 0.00 0.30 0.30 86 1012.6
20260831165724 61 265 1.0 4.0 0.00 0.30 0.30 86 1012.8
20260831164724 61 171 1.0 7.0 0.03 0.30 0.30 86 1012.3
20260831163724 62 106 0.0 3.0 0.15 0.30 0.30 86 1012.3
20260831162724 61 241 3.0 5.0 0.15 0.30 0.30 86 1012.4
20260831161724 61 232 4.0 9.0 0.15 0.30 0.30 85 1012.7
20260831160724 61 229 3.0 9.0 0.15 0.30 0.30 85 1012.3
20260831155724 62 191 8.0 14.0 0.15 0.30 0.30 83 1012.7
20260831154724 65 230 3.0 9.0 0.12 0.27 0.27 82 1012.4
20260831153724 66 0 1.0 4.0 0.00 0.15 0.15 77 1011.5
20260831152724 67 279 2.0 3.0 0.00 0.15 0.15 75 1011.8
20260831151724 67 265 6.0 17.0 0.03 0.15 0.15 71 1011.6
20260831150724 67 244 8.0 12.0 0.03 0.15 0.15 73 1011.5
20260831145724 67 321 9.0 14.0 0.03 0.15 0.15 76 1011.4
20260831144724 65 273 4.0 11.0 0.03 0.15 0.15 82 1011.4
20260831143724 65 300 2.0 4.0 0.03 0.15 0.15 82 1011.2
20260831142724 67 245 8.0 18.0 0.03 0.15 0.15 76 1011.2
20260831141724 69 269 8.0 15.0 0.00 0.12 0.12 69 1011.0
20260831140724 68 252 4.0 15.0 0.07 0.12 0.12 73 1011.0
20260831135724 67 270 5.0 9.0 0.07 0.12 0.12 79 1011.0
20260831134724 67 292 4.0 9.0 0.07 0.12 0.12 82 1011.0
20260831133724 66 236 2.0 7.0 0.07 0.12 0.12 84 1011.0
20260831132724 65 261 3.0 8.0 0.07 0.12 0.12 85 1011.3
20260831131724 66 315 8.0 12.0 0.07 0.12 0.12 78 1011.5
20260831130725 69 236 9.0 14.0 0.00 0.05 0.05 65 1011.2
20260831125725 70 281 10.0 19.0 0.00 0.05 0.05 63 1011.1
20260831124725 70 291 10.0 15.0 0.00 0.05 0.05 64 1011.0
20260831123725 70 277 9.0 16.0 0.00 0.05 0.05 63 1010.9
20260831122725 69 240 8.0 18.0 0.00 0.05 0.05 66 1011.1
20260831121725 69 277 9.0 13.0 0.00 0.05 0.05 67 1011.2
20260831120725 70 273 9.0 14.0 0.00 0.05 0.05 66 1011.2
20260831115725 70 286 10.0 16.0 0.00 0.05 0.05 64 1011.2
20260831114725 70 265 8.0 17.0 0.00 0.05 0.05 66 1011.1
20260831113725 69 333 8.0 15.0 0.05 0.05 0.05 70 1011.1